Weather in Staraja Kupavna

Russia / Moscow Oblast     55°48′38″N   38°10′32″E
temp.,
°C
wind,
m/s
gust,
m/s
humid.,
%
clouds,
%
prec.,
mm/h
press.,
hPa
HPBL,
m
10 august, wed
wed1000:00+16nne289698 0.1 1022295
03:00+15nne2695100 0.1 1022218
06:00+14nne3794100 0.0 1022229
09:00+16nne3787100 0.0 1023341
12:00+20ne3557100 0.0 10231067
15:00+22ne3445100 0.0 10221832
18:00+21ne354971 0.0 1022463
21:00+16nne3869100 0.0 1023155
11 august, thu
thu1100:00+15ne377673 0.0 1024153
03:00+13ne258383 0.0 1024103
06:00+13ne26803 0.0 1025138
09:00+19ne34560 0.0 1026461
12:00+23ne22410 0.0 10251584
15:00+24ne22370 0.0 10241678
18:00+23ne22480 0.0 1023240
21:00+16ne23660 0.0 102446
12 august, fri
fri1200:00+14ene22700 0.0 102520
03:00+13ene11725 0.0 102511
06:00+14ne117287 0.0 102612
09:00+20n11505 0.0 1026328
12:00+25wnw12376 0.0 10251329
15:00+27w22316 0.0 10231748
18:00+25nnw124498 0.0 102387
21:00+18ne115911 0.0 102413
13 august, sat
sat1300:00+16n11630 0.0 102412
03:00+15nne11702 0.0 102411
06:00+15nne117410 0.0 102511
09:00+22ne11535 0.0 1025344
12:00+27ene11395 0.0 10241435
15:00+28e1235100 0.0 10231797
18:00+26e11485 0.0 102296
21:00+20ene1157100 0.0 102211
14 august, sun
sun1400:00+18ene2266100 0.0 102212
03:00+18e1167100 0.0 102211
06:00+18e2272100 0.0 102224
09:00+23ese235595 0.0 1022338
12:00+26sse2339100 0.0 1022927
15:00+28sse333491 0.0 10211699
18:00+26se235086 0.0 1020129
21:00+20se236492 0.0 102136